KD5JEO Weather Reports


time (UTC)temp
C
wind
direction
speed
KPH
gust
KPH
rain 1hr
cm
rain 24hr
cm
rain mn
cm
humidity
%
barometer
mb
20260502230043 18 277 11.3 19.3 0.00 0.00 0.00 32 1010.3
20260502225532 18 263 4.8 24.1 0.00 0.00 0.00 33 1010.3
20260502225032 18 313 12.9 24.1 0.00 0.00 0.00 32 1010.4
20260502224542 18 275 4.8 22.5 0.00 0.00 0.00 31 1010.4
20260502224031 18 255 12.9 25.7 0.00 0.00 0.00 31 1010.5
20260502223533 17 220 11.3 27.4 0.00 0.00 0.00 31 1010.7
20260502223039 17 209 16.1 27.4 0.00 0.00 0.00 32 1010.6
20260502222532 17 252 12.9 30.6 0.00 0.00 0.00 32 1010.6
20260502222031 17 204 14.5 30.6 0.00 0.00 0.00 32 1010.7
20260502221542 17 244 11.3 20.9 0.00 0.00 0.00 32 1010.8
20260502221031 17 181 11.3 20.9 0.00 0.00 0.00 31 1010.9
20260502220532 17 287 11.3 24.1 0.00 0.00 0.00 32 1010.9
20260502220052 17 273 6.4 27.4 0.00 0.00 0.00 34 1011.0
20260502215531 17 243 14.5 32.2 0.00 0.00 0.00 32 1011.1
20260502215030 17 223 17.7 32.2 0.00 0.00 0.00 32 1011.1
20260502214536 18 265 17.7 29.0 0.00 0.00 0.00 31 1011.1
20260502214032 18 221 12.9 24.1 0.00 0.00 0.00 31 1011.2
20260502213532 18 252 14.5 27.4 0.00 0.00 0.00 31 1011.2
20260502213041 18 223 9.7 29.0 0.00 0.00 0.00 30 1011.3
20260502212533 18 277 14.5 30.6 0.00 0.00 0.00 31 1011.4
20260502212032 18 238 17.7 30.6 0.00 0.00 0.00 29 1011.5
20260502211542 18 203 14.5 30.6 0.00 0.00 0.00 31 1011.6
20260502211031 18 273 17.7 30.6 0.00 0.00 0.00 30 1011.8
20260502210531 18 223 16.1 27.4 0.00 0.00 0.00 30 1011.8
20260502210041 17 249 16.1 29.0 0.00 0.00 0.00 32 1011.9
20260502205531 17 254 12.9 29.0 0.00 0.00 0.00 31 1012.0
20260502205029 17 269 12.9 27.4 0.00 0.00 0.00 31 1012.1
20260502204558 17 244 9.7 27.4 0.00 0.00 0.00 34 1012.2
20260502204033 17 262 12.9 29.0 0.00 0.00 0.00 30 1012.4
20260502203532 17 217 11.3 29.0 0.00 0.00 0.00 32 1012.4
20260502203047 18 217 17.7 27.4 0.00 0.00 0.00 30 1012.5
20260502202531 17 238 14.5 29.0 0.00 0.00 0.00 34 1012.7
20260502202032 17 190 17.7 29.0 0.00 0.00 0.00 32 1012.8
20260502201545 17 254 14.5 25.7 0.00 0.00 0.00 32 1013.0
20260502201032 17 313 11.3 24.1 0.00 0.00 0.00 31 1013.0
20260502200532 17 258 12.9 25.7 0.00 0.00 0.00 32 1013.2
20260502200041 17 257 14.5 27.4 0.00 0.00 0.00 33 1013.2
20260502195534 16 271 16.1 27.4 0.00 0.00 0.00 33 1013.3
20260502195029 16 238 12.9 24.1 0.00 0.00 0.00 32 1013.4
20260502194548 16 200 12.9 27.4 0.00 0.00 0.00 33 1013.4
20260502194031 16 257 9.7 27.4 0.00 0.00 0.00 33 1013.5
20260502193531 16 234 9.7 24.1 0.00 0.00 0.00 35 1013.6
20260502193039 16 218 11.3 20.9 0.00 0.00 0.00 33 1013.8
20260502192532 16 197 8.0 24.1 0.00 0.00 0.00 32 1013.8
20260502192033 16 174 12.9 24.1 0.00 0.00 0.00 33 1014.0
20260502191542 16 234 8.0 29.0 0.00 0.00 0.00 32 1014.0
20260502191035 16 267 14.5 29.0 0.00 0.00 0.00 33 1014.2
20260502190533 16 235 19.3 33.8 0.00 0.00 0.00 34 1014.2
20260502190037 16 234 11.3 33.8 0.00 0.00 0.00 33 1014.3
20260502185531 15 180 12.9 33.8 0.00 0.00 0.00 33 1014.2
20260502185033 15 209 16.1 29.0 0.00 0.00 0.00 32 1014.4
20260502184543 15 299 11.3 30.6 0.00 0.00 0.00 36 1014.6
20260502184031 15 237 16.1 30.6 0.00 0.00 0.00 35 1014.9
20260502183534 15 261 11.3 24.1 0.00 0.00 0.00 35 1015.0
20260502183048 15 232 14.5 24.1 0.00 0.00 0.00 35 1015.0
20260502182535 15 306 16.1 24.1 0.00 0.00 0.00 34 1015.1
20260502182032 15 267 4.8 19.3 0.00 0.00 0.00 33 1015.1
20260502181538 15 316 9.7 24.1 0.00 0.00 0.00 38 1015.2
20260502181033 15 322 14.5 24.1 0.00 0.00 0.00 35 1015.3
20260502180533 15 222 6.4 17.7 0.00 0.00 0.00 37 1015.3
20260502164033 13 264 11.3 22.5 0.00 0.00 0.00 37 1016.6
20260502163533 13 271 9.7 33.8 0.00 0.00 0.00 38 1016.8
20260502163103 13 272 19.3 33.8 0.00 0.00 0.00 37 1016.8
20260502162533 13 233 16.1 29.0 0.00 0.00 0.00 37 1016.8
20260502162031 12 286 16.1 29.0 0.00 0.00 0.00 37 1016.9
20260502161551 12 230 14.5 29.0 0.00 0.00 0.00 37 1017.0
20260502161032 13 247 12.9 27.4 0.00 0.00 0.00 38 1017.1
20260502160538 13 281 16.1 27.4 0.00 0.00 0.00 38 1017.1
20260502152035 11 204 12.9 22.5 0.00 0.00 0.00 40 1017.4
20260502151539 11 250 11.3 24.1 0.00 0.00 0.00 43 1017.5
20260502151033 11 301 9.7 24.1 0.00 0.00 0.00 45 1017.5
20260502150530 11 277 16.1 24.1 0.00 0.00 0.00 43 1017.5
20260502130529 7 267 8.0 16.1 0.00 0.00 0.00 53 1017.8
20260502123530 6 9 8.0 16.1 0.00 0.00 0.00 55 1017.7
20260502123045 6 299 6.4 16.1 0.00 0.00 0.00 55 1017.7
20260502122532 5 300 8.0 16.1 0.00 0.00 0.00 56 1017.6
20260502122032 5 288 4.8 14.5 0.00 0.00 0.00 58 1017.5
20260502121539 5 290 8.0 12.9 0.00 0.00 0.00 59 1017.5
20260502121031 5 258 6.4 14.5 0.00 0.00 0.00 59 1017.6
20260502120530 4 261 6.4 17.7 0.00 0.00 0.00 60 1017.6
20260502115533 3 252 6.4 12.9 0.00 0.00 0.00 61 1017.5
20260502115030 3 288 6.4 14.5 0.00 0.00 0.00 61 1017.5
20260502114546 3 300 6.4 14.5 0.00 0.00 0.00 61 1017.5
20260502114033 3 276 4.8 12.9 0.00 0.00 0.00 62 1017.4
20260502113531 3 279 4.8 12.9 0.00 0.00 0.00 62 1017.3
20260502113039 3 273 6.4 12.9 0.00 0.00 0.00 63 1017.3
20260502112532 3 291 4.8 12.9 0.00 0.00 0.00 62 1017.3
20260502112034 3 252 4.8 11.3 0.00 0.00 0.00 62 1017.3
20260502111547 3 265 3.2 11.3 0.00 0.00 0.00 62 1017.2
20260502111030 3 290 4.8 11.3 0.00 0.00 0.00 63 1017.3
20260502110532 3 271 3.2 9.7 0.00 0.00 0.00 62 1017.3
20260502110042 3 301 4.8 12.9 0.00 0.00 0.00 62 1017.4
20260502105532 3 267 3.2 12.9 0.00 0.00 0.00 61 1017.3
20260502105030 3 302 4.8 11.3 0.00 0.00 0.00 61 1017.4
20260502104549 3 276 4.8 11.3 0.00 0.00 0.00 60 1017.4
20260502104031 3 262 3.2 11.3 0.00 0.00 0.00 60 1017.4
20260502103531 3 259 4.8 12.9 0.00 0.00 0.00 60 1017.4
20260502103039 3 271 4.8 12.9 0.00 0.00 0.00 59 1017.3
20260502102532 3 259 6.4 12.9 0.00 0.00 0.00 59 1017.3
20260502102031 3 276 4.8 12.9 0.00 0.00 0.00 58 1017.4
20260502101537 3 295 4.8 11.3 0.00 0.00 0.00 57 1017.4
20260502101033 4 277 4.8 11.3 0.00 0.00 0.00 57 1017.4
20260502100530 4 279 4.8 12.9 0.00 0.00 0.00 55 1017.4
20260502091031 5 248 8.0 16.1 0.00 0.00 0.00 55 1017.3
20260502090530 5 257 8.0 16.1 0.00 0.00 0.00 55 1017.3
20260502071031 4 267 3.2 11.3 0.00 0.00 0.00 54 1017.5
20260502070530 4 259 3.2 11.3 0.00 0.00 0.00 54 1017.5
20260502070049 4 261 4.8 12.9 0.00 0.00 0.00 55 1017.5
20260502065533 4 248 4.8 12.9 0.00 0.00 0.00 55 1017.6
20260502065031 4 252 6.4 12.9 0.00 0.00 0.00 54 1017.7
20260502064545 4 271 4.8 11.3 0.00 0.00 0.00 54 1017.6
20260502064030 4 244 4.8 12.9 0.00 0.00 0.00 54 1017.7
20260502063532 4 258 4.8 12.9 0.00 0.00 0.00 54 1017.8
20260502063036 4 263 4.8 11.3 0.00 0.00 0.00 55 1017.8
20260502062533 4 269 4.8 11.3 0.00 0.00 0.00 55 1017.8
20260502062031 3 273 4.8 11.3 0.00 0.00 0.00 55 1017.8
20260502061543 3 247 4.8 9.7 0.00 0.00 0.00 55 1017.7
20260502061031 3 275 3.2 9.7 0.00 0.00 0.00 56 1017.8
20260502060532 3 269 3.2 6.4 0.00 0.00 0.00 56 1017.8
20260502060040 3 284 3.2 9.7 0.00 0.00 0.00 55 1017.8
20260502055533 3 265 3.2 9.7 0.00 0.00 0.00 55 1017.8
20260502055030 4 277 3.2 14.5 0.00 0.00 0.00 54 1017.8
20260502054555 4 273 3.2 14.5 0.00 0.00 0.00 54 1017.8
20260502054032 4 267 4.8 9.7 0.00 0.00 0.00 54 1017.9
20260502053532 4 272 3.2 9.7 0.00 0.00 0.00 54 1017.8
20260502053038 4 259 3.2 9.7 0.00 0.00 0.00 54 1017.8
20260502052532 4 274 4.8 9.7 0.00 0.00 0.00 54 1017.9
20260502052031 4 273 4.8 9.7 0.00 0.00 0.00 53 1017.8
20260502051546 4 265 4.8 9.7 0.00 0.00 0.00 54 1017.8
20260502051032 4 285 4.8 9.7 0.00 0.00 0.00 54 1017.8
20260502050531 4 267 3.2 9.7 0.00 0.00 0.00 54 1017.8
20260502050043 4 281 3.2 9.7 0.00 0.00 0.00 54 1017.9
20260502045534 4 278 4.8 9.7 0.00 0.00 0.00 54 1017.8
20260502045033 4 276 4.8 9.7 0.00 0.00 0.00 54 1017.8
20260502044544 4 275 4.8 9.7 0.00 0.00 0.00 54 1017.8
20260502044032 4 288 4.8 9.7 0.00 0.00 0.00 56 1017.7
20260502043532 4 277 3.2 9.7 0.00 0.00 0.00 56 1017.7
20260502043044 3 271 3.2 6.4 0.00 0.00 0.00 57 1017.8
20260502042532 3 270 3.2 6.4 0.00 0.00 0.00 58 1017.8
20260502042032 3 276 3.2 6.4 0.00 0.00 0.00 59 1017.8
20260502041546 3 273 3.2 6.4 0.00 0.00 0.00 59 1017.8
20260502041032 3 272 3.2 6.4 0.00 0.00 0.00 60 1017.7
20260502040529 3 271 3.2 6.4 0.00 0.00 0.00 61 1017.8
20260502040038 3 260 3.2 6.4 0.00 0.00 0.00 62 1017.8
20260502035532 3 273 3.2 6.4 0.00 0.00 0.00 63 1017.8
20260502035032 3 275 1.6 4.8 0.00 0.00 0.00 62 1017.8
20260502034543 3 275 0.0 3.2 0.00 0.00 0.00 61 1017.9
20260502034032 3 263 1.6 4.8 0.00 0.00 0.00 61 1017.9
20260502033531 3 263 1.6 4.8 0.00 0.00 0.00 59 1017.9
20260502033042 4 263 1.6 4.8 0.00 0.00 0.00 58 1017.9
20260502032531 4 266 1.6 3.2 0.00 0.00 0.00 58 1018.0
20260502032032 5 265 1.6 3.2 0.00 0.00 0.00 57 1018.0
20260502031537 5 265 1.6 3.2 0.00 0.00 0.00 57 1017.9
20260502031033 5 265 1.6 4.8 0.00 0.00 0.00 55 1018.0
20260502030530 5 265 1.6 4.8 0.00 0.00 0.00 54 1017.9
20260502030040 5 266 1.6 3.2 0.00 0.00 0.00 53 1017.9
20260502025532 5 266 1.6 3.2 0.00 0.00 0.00 52 1017.9
20260502025029 6 266 1.6 3.2 0.00 0.00 0.00 52 1018.0
20260502024540 6 266 1.6 4.8 0.00 0.00 0.00 51 1017.9
20260502024032 6 266 1.6 6.4 0.00 0.00 0.00 50 1018.0
20260502023532 6 266 3.2 6.4 0.00 0.00 0.00 51 1017.9
20260502023039 6 262 1.6 4.8 0.00 0.00 0.00 49 1017.9
20260502022532 6 266 1.6 4.8 0.00 0.00 0.00 49 1017.9
20260502022030 6 266 1.6 3.2 0.00 0.00 0.00 48 1017.8
20260502021545 6 253 0.0 4.8 0.00 0.00 0.00 47 1017.8
20260502021031 7 253 1.6 4.8 0.00 0.00 0.00 46 1017.8
20260502020532 7 292 1.6 4.8 0.00 0.00 0.00 45 1017.7
20260502020043 7 302 0.0 3.2 0.00 0.00 0.00 44 1017.7
20260502015533 7 256 1.6 4.8 0.00 0.00 0.00 43 1017.6
20260502015031 7 256 1.6 4.8 0.00 0.00 0.00 43 1017.5
20260502014551 8 266 1.6 4.8 0.00 0.00 0.00 42 1017.4
20260502014032 8 0 0.0 1.6 0.00 0.00 0.00 41 1017.4
20260502013532 8 331 0.0 1.6 0.00 0.00 0.00 41 1017.3
20260502013035 8 331 0.0 1.6 0.00 0.00 0.00 39 1017.2
20260502012532 8 0 0.0 0.0 0.00 0.00 0.00 39 1017.2
20260502012031 8 0 0.0 1.6 0.00 0.00 0.00 39 1017.2
20260502011547 9 0 0.0 6.4 0.00 0.00 0.00 37 1017.2
20260502011032 9 0 0.0 9.7 0.00 0.00 0.00 35 1017.2
20260502010532 9 9 3.2 9.7 0.00 0.00 0.00 35 1017.2
20260502010040 10 306 3.2 14.5 0.00 0.00 0.00 34 1017.1
20260502005531 10 347 6.4 16.1 0.00 0.00 0.00 34 1017.1
20260502005032 10 334 6.4 16.1 0.00 0.00 0.00 33 1017.1
20260502004548 10 315 6.4 16.1 0.00 0.00 0.00 34 1017.1
20260502004032 10 324 3.2 16.1 0.00 0.00 0.00 33 1017.2
20260502003531 10 339 9.7 17.7 0.00 0.00 0.00 33 1017.2
20260502003037 10 352 8.0 24.1 0.00 0.00 0.00 32 1017.1
20260502002534 10 319 11.3 24.1 0.00 0.00 0.00 33 1017.1
20260502002034 11 95 6.4 19.3 0.00 0.00 0.00 32 1017.1
20260502001543 10 343 1.6 14.5 0.00 0.00 0.00 31 1017.1
20260502001031 10 346 6.4 14.5 0.00 0.00 0.00 32 1017.0
20260502000531 10 5 4.8 14.5 0.00 0.00 0.00 32 1017.1
20260502000052 10 360 1.6 14.5 0.00 0.00 0.00 33 1017.0
20260501235531 10 269 3.2 14.5 0.00 0.00 0.00 32 1017.0
20260501235032 10 266 6.4 14.5 0.00 0.00 0.00 32 1017.0
20260501234541 10 352 6.4 14.5 0.00 0.00 0.00 34 1017.0
20260501234031 10 262 4.8 14.5 0.00 0.00 0.00 32 1016.9
20260501233534 10 282 6.4 14.5 0.00 0.00 0.00 33 1017.1
20260501233038 10 330 4.8 9.7 0.00 0.00 0.00 34 1017.0
20260501232531 10 350 1.6 11.3 0.00 0.00 0.00 35 1017.0
20260501232031 10 5 4.8 12.9 0.00 0.00 0.00 35 1017.0
20260501231534 10 322 4.8 12.9 0.00 0.00 0.00 34 1017.0
20260501231032 10 344 3.2 14.5 0.00 0.00 0.00 35 1017.1
20260501230532 10 343 6.4 17.7 0.00 0.00 0.00 33 1017.0